Location: Camps Bay
(33.9517°S, 18.3844°E)
Time: 10:51:23
(UTC+00:00)

ASTEX 1 - Pass Details

Date: 18 January 2020
Orbit: 721 x 743 km, 92.7° (Epoch: 17 February)

Event Time Altitude Azimuth Distance (km) Brightness Sun altitude
Rises 00:49:03 0° 174° (S) 3,212 7.7 -29.2°
Reaches altitude 10° 00:51:22 10° 173° (S) 2,279 6.7 -28.9°
Enters shadow 00:55:51 70° 161° (SSE) 795 3.6 -28.4°
